Home   Weather   Grande Prairie   Past weeks

Flag for Canada Past Weather in Grande Prairie, Alberta, Canada — Yesterday and Last 2 Weeks

34 °F

Mostly cloudy.

Feels Like: 34 °F
Forecast: 31 / 42 °F
Wind: No wind

Location: Grande Prairie

Current Time: Oct 22, 2016 at 2:52:20 AM

Latest Report: Oct 22, 2016 at 2:00 AM

Visibility: 25 mi

Pressure: 29.79 "Hg (27.45 "Hg at 657m altitude)

Humidity: 87%

Dew Point: 30 °F

Location of Grande PrairieLocation

Past Weather in Grande Prairie — Graph


Grande Prairie Temperature Yesterday

Maximum temperature yesterday: 46 °F (at 4:00 PM)
Minimum temperature yesterday: 30 °F (at 9:00 PM)
Average temperature yesterday: 37 °F

High & Low Weather Summary for the Past Weeks

High46 °F (Oct 21, 4:00 PM)100% (Oct 8, 1:00 AM)30.40 "Hg (Oct 8, 1:00 AM)
Low14 °F (Oct 19, 6:00 AM)45% (Oct 12, 2:00 PM)29.34 "Hg (Oct 16, 6:00 AM)
Average30 °F86%29.95 "Hg
* Reported Oct 7 1:00 AM — Oct 22 1:00 AM, Grande Prairie, Weather by CustomWeather, © 2016

Note: Actual official high and low records may vary slightly from our data, if they occured in-between our weather recording intervals... More about our weather records


Grande Prairie Weather History for the Previous 24 Hours

Scroll right to see more
Time TempWeatherWind HumidityBarometerVisibility
1:00 AM
Sat, Oct 22
36 °FOvercast.No wind81%29.80 "Hg25 mi
12:00 AM32 °FMostly cloudy.5 mph93%29.81 "Hg25 mi
11:00 PM
Fri, Oct 21
32 °FOvercast.5 mph93%29.81 "Hg25 mi
10:00 PM30 °FPartly cloudy.7 mph93%29.81 "Hg25 mi
9:00 PM30 °FPartly cloudy.5 mph86%29.83 "Hg25 mi
8:00 PM32 °FPartly cloudy.5 mph87%29.83 "Hg25 mi
7:00 PM39 °FPartly cloudy.5 mph70%29.82 "Hg25 mi
6:00 PM39 °FBroken clouds.6 mph70%29.83 "Hg25 mi
5:00 PM43 °FPartly sunny.7 mph61%29.83 "Hg25 mi
4:00 PM46 °FScattered clouds.2 mph50%29.85 "Hg25 mi
3:00 PM45 °FScattered clouds.3 mph57%29.86 "Hg25 mi
2:00 PM45 °FScattered clouds.No wind57%29.87 "Hg25 mi
1:00 PM43 °FPassing clouds.3 mph66%29.90 "Hg25 mi
12:00 PM41 °FPassing clouds.7 mph70%29.90 "Hg25 mi
11:00 AM39 °FScattered clouds.5 mph70%29.92 "Hg25 mi
10:00 AM36 °FScattered clouds.5 mph75%29.92 "Hg25 mi
9:00 AM32 °FPassing clouds.8 mph87%29.91 "Hg25 mi
8:00 AM34 °FPassing clouds.10 mph87%29.90 "Hg25 mi
7:00 AM36 °FClear.10 mph81%29.90 "Hg25 mi
6:00 AM36 °FClear.13 mph87%29.88 "Hg25 mi
5:00 AM37 °FPassing clouds.13 mph81%29.87 "Hg25 mi
4:00 AM37 °FPassing clouds.14 mph87%29.86 "Hg25 mi
3:00 AM37 °FOvercast.12 mph87%29.86 "Hg25 mi
2:00 AM37 °FLight rain. Overcast.13 mph87%29.84 "Hg20 mi
Weather by CustomWeather, © 2016

See weather overviewHow to use our weather pages